Location: Wald
(31.7579°N, 86.6655°W)
Time: 21:17:47
(UTC+00:00)

H-2A R/B - Pass Details

Date: 14 July 2020
Orbit: 732 x 838 km, 98.2° (Epoch: 13 August)

Event Time Altitude Azimuth Distance (km) Brightness Sun altitude
Rises 01:37:10 0° 180° (S) 3,368 5.0 -8.9°
Reaches altitude 10° 01:39:36 10° 186° (S) 2,441 4.3 -9.3°
Maximum altitude 01:44:50 49° 260° (W) 1,066 3.1 -10.2°
Drops below altitude 10° 01:50:05 10° 335° (NNW) 2,439 5.6 -11.2°
Sets 01:52:31 0° 341° (NNW) 3,365 6.3 -11.6°
